Hourly Weather Barneveld

Today, 6 May, Thursday

Time Temperature Precipitation Wind Pressure Humidity
00:00 +4°C° 0 mm 2 mps 755 mmHg 83%
01:00 +4°C° 0.2 mm 2 mps 754 mmHg 87%
02:00 +3°C° 0.2 mm 2 mps 754 mmHg 92%
03:00 +3°C° 0.2 mm 2 mps 754 mmHg 96%
04:00 +3°C° 0 mm 2 mps 754 mmHg 93%
05:00 +4°C° 0 mm 2 mps 754 mmHg 90%
06:00 +5°C° 0 mm 2 mps 754 mmHg 88%
07:00 +6°C° 0 mm 2 mps 754 mmHg 80%
08:00 +7°C° 0 mm 2 mps 754 mmHg 72%
09:00 +9°C° 0 mm 2 mps 753 mmHg 65%
10:00 +9°C° 0.2 mm 2 mps 753 mmHg 61%
11:00 +10°C° 0.2 mm 2 mps 753 mmHg 58%
12:00 +10°C° 0.2 mm 2 mps 753 mmHg 54%
13:00 +10°C° 0.3 mm 2 mps 752 mmHg 55%
14:00 +10°C° 0.3 mm 2 mps 752 mmHg 57%
15:00 +11°C° 0.3 mm 1 mps 751 mmHg 58%
16:00 +9°C° 0.3 mm 2 mps 751 mmHg 66%
17:00 +8°C° 0.3 mm 2 mps 751 mmHg 73%
18:00 +7°C° 0.3 mm 2 mps 751 mmHg 81%
19:00 +6°C° 0.1 mm 2 mps 752 mmHg 84%
20:00 +6°C° 0.1 mm 1 mps 752 mmHg 87%
21:00 +5°C° 0.1 mm 1 mps 753 mmHg 90%
22:00 +4°C° 0.1 mm 1 mps 753 mmHg 91%
23:00 +3°C° 0.1 mm 2 mps 753 mmHg 92%

Tomorrow, 7 May, Friday

Time Temperature Precipitation Wind Pressure Humidity
00:00 +3°C° 0.1 mm 2 mps 754 mmHg 93%
01:00 +3°C° 0 mm 2 mps 754 mmHg 93%
02:00 +3°C° 0 mm 2 mps 754 mmHg 92%
03:00 +3°C° 0 mm 2 mps 755 mmHg 92%
04:00 +3°C° 0 mm 2 mps 755 mmHg 90%
05:00 +4°C° 0 mm 2 mps 756 mmHg 89%
06:00 +5°C° 0 mm 2 mps 756 mmHg 87%
07:00 +5°C° 0.1 mm 3 mps 757 mmHg 76%
08:00 +7°C° 0.1 mm 4 mps 758 mmHg 66%
09:00 +8°C° 0.1 mm 4 mps 758 mmHg 55%
10:00 +9°C° 0 mm 5 mps 759 mmHg 52%
11:00 +10°C° 0 mm 5 mps 759 mmHg 48%
12:00 +10°C° 0 mm 6 mps 759 mmHg 44%
13:00 +10°C° 0 mm 6 mps 760 mmHg 45%
14:00 +10°C° 0 mm 6 mps 760 mmHg 46%
15:00 +10°C° 0 mm 6 mps 760 mmHg 48%
16:00 +9°C° 0 mm 5 mps 761 mmHg 53%
17:00 +8°C° 0 mm 4 mps 761 mmHg 59%
18:00 +7°C° 0 mm 4 mps 761 mmHg 65%
19:00 +7°C° 0 mm 3 mps 762 mmHg 72%
20:00 +5°C° 0 mm 2 mps 762 mmHg 79%
21:00 +4°C° 0 mm 2 mps 762 mmHg 86%
22:00 +4°C° 0 mm 2 mps 762 mmHg 86%
23:00 +3°C° 0 mm 2 mps 762 mmHg 86%

Day after tomorrow, 8 May, Saturday

Time Temperature Precipitation Wind Pressure Humidity
00:00 +3°C° 0 mm 2 mps 762 mmHg 86%
01:00 +3°C° 0 mm 2 mps 762 mmHg 85%
02:00 +3°C° 0 mm 2 mps 762 mmHg 84%
03:00 +2°C° 0 mm 2 mps 762 mmHg 82%
04:00 +2°C° 0 mm 3 mps 761 mmHg 78%
05:00 +3°C° 0 mm 3 mps 761 mmHg 73%
06:00 +4°C° 0 mm 3 mps 761 mmHg 69%
07:00 +6°C° 0 mm 4 mps 760 mmHg 65%
08:00 +8°C° 0 mm 5 mps 760 mmHg 61%
09:00 +10°C° 0 mm 6 mps 760 mmHg 56%
10:00 +11°C° 0 mm 6 mps 759 mmHg 56%
11:00 +13°C° 0 mm 6 mps 758 mmHg 55%
12:00 +13°C° 0 mm 6 mps 757 mmHg 55%
13:00 +11°C° 0.6 mm 6 mps 757 mmHg 66%
14:00 +9°C° 0.6 mm 6 mps 756 mmHg 77%
15:00 +8°C° 0.6 mm 6 mps 756 mmHg 89%
16:00 +9°C° 0.8 mm 6 mps 755 mmHg 89%
17:00 +9°C° 0.8 mm 6 mps 754 mmHg 90%
18:00 +10°C° 0.8 mm 7 mps 754 mmHg 90%
19:00 +10°C° 0 mm 6 mps 754 mmHg 91%
20:00 +10°C° 0 mm 6 mps 753 mmHg 92%
21:00 +11°C° 0 mm 6 mps 753 mmHg 93%
22:00 +11°C° 0 mm 6 mps 753 mmHg 93%
23:00 +10°C° 0 mm 5 mps 753 mmHg 93%

9 May, Sunday

Time Temperature Precipitation Wind Pressure Humidity
00:00 +10°C° 0 mm 5 mps 753 mmHg 93%
01:00 +10°C° 0 mm 5 mps 752 mmHg 94%
02:00 +11°C° 0 mm 4 mps 752 mmHg 94%
03:00 +11°C° 0 mm 4 mps 751 mmHg 94%
04:00 +11°C° 0 mm 4 mps 751 mmHg 92%
05:00 +12°C° 0 mm 4 mps 751 mmHg 89%
06:00 +13°C° 0 mm 5 mps 751 mmHg 87%
07:00 +14°C° 0.2 mm 5 mps 750 mmHg 85%
08:00 +15°C° 0.2 mm 6 mps 750 mmHg 82%
09:00 +17°C° 0.2 mm 6 mps 750 mmHg 80%
10:00 +19°C° 0 mm 6 mps 750 mmHg 75%
11:00 +20°C° 0 mm 6 mps 750 mmHg 71%
12:00 +21°C° 0 mm 7 mps 749 mmHg 67%
13:00 +22°C° 0 mm 6 mps 749 mmHg 65%
14:00 +23°C° 0 mm 6 mps 749 mmHg 64%
15:00 +24°C° 0 mm 6 mps 748 mmHg 62%
16:00 +23°C° 0.2 mm 6 mps 748 mmHg 67%
17:00 +21°C° 0.2 mm 6 mps 748 mmHg 72%
18:00 +20°C° 0.2 mm 5 mps 748 mmHg 77%
19:00 +19°C° 0.6 mm 5 mps 749 mmHg 82%
20:00 +16°C° 0.6 mm 5 mps 749 mmHg 87%
21:00 +15°C° 0.6 mm 5 mps 750 mmHg 93%
22:00 +15°C° 0.3 mm 5 mps 750 mmHg 93%
23:00 +14°C° 0.3 mm 5 mps 750 mmHg 93%

10 May, Monday

Time Temperature Precipitation Wind Pressure Humidity
00:00 +14°C° 0.3 mm 5 mps 750 mmHg 93%
01:00 +14°C° 0 mm 4 mps 750 mmHg 94%
02:00 +14°C° 0 mm 4 mps 750 mmHg 94%
03:00 +13°C° 0 mm 4 mps 750 mmHg 95%
04:00 +13°C° 0.2 mm 4 mps 751 mmHg 94%
05:00 +13°C° 0.2 mm 5 mps 751 mmHg 94%
06:00 +12°C° 0.2 mm 5 mps 752 mmHg 93%
07:00 +13°C° 0.4 mm 5 mps 752 mmHg 89%
08:00 +13°C° 0.4 mm 5 mps 753 mmHg 85%
09:00 +13°C° 0.4 mm 5 mps 754 mmHg 80%
10:00 +14°C° 0.1 mm 5 mps 754 mmHg 77%
11:00 +14°C° 0.1 mm 5 mps 754 mmHg 74%
12:00 +15°C° 0.1 mm 5 mps 755 mmHg 70%
13:00 +15°C° 0 mm 4 mps 755 mmHg 66%
14:00 +17°C° 0 mm 3 mps 755 mmHg 62%
15:00 +17°C° 0 mm 3 mps 755 mmHg 59%
16:00 +16°C° 0.1 mm 2 mps 755 mmHg 64%
17:00 +16°C° 0.1 mm 2 mps 755 mmHg 69%
18:00 +15°C° 0.1 mm 1 mps 755 mmHg 74%
19:00 +14°C° 0 mm 1 mps 755 mmHg 77%
20:00 +14°C° 0 mm 1 mps 756 mmHg 79%
21:00 +13°C° 0 mm 1 mps 756 mmHg 81%
22:00 +12°C° 0 mm 1 mps 756 mmHg 84%
23:00 +12°C° 0 mm 2 mps 756 mmHg 87%

11 May, Tuesday

Time Temperature Precipitation Wind Pressure Humidity
00:00 +10°C° 0 mm 2 mps 756 mmHg 90%
01:00 +10°C° 0 mm 2 mps 756 mmHg 91%
02:00 +10°C° 0 mm 2 mps 756 mmHg 92%
03:00 +10°C° 0 mm 2 mps 756 mmHg 93%
04:00 +10°C° 0 mm 2 mps 756 mmHg 91%
05:00 +12°C° 0 mm 2 mps 757 mmHg 89%
06:00 +13°C° 0 mm 2 mps 757 mmHg 87%
07:00 +14°C° 0.2 mm 2 mps 757 mmHg 82%
08:00 +15°C° 0.2 mm 2 mps 757 mmHg 78%
09:00 +16°C° 0.2 mm 2 mps 757 mmHg 74%
10:00 +16°C° 0.3 mm 3 mps 757 mmHg 72%
11:00 +16°C° 0.3 mm 3 mps 756 mmHg 70%
12:00 +17°C° 0.3 mm 3 mps 756 mmHg 69%
13:00 +16°C° 0.5 mm 3 mps 756 mmHg 73%
14:00 +16°C° 0.5 mm 3 mps 756 mmHg 78%
15:00 +14°C° 0.5 mm 3 mps 756 mmHg 83%
16:00 +14°C° 0.3 mm 3 mps 756 mmHg 84%
17:00 +13°C° 0.3 mm 3 mps 756 mmHg 85%
18:00 +13°C° 0.3 mm 3 mps 756 mmHg 86%
19:00 +12°C° 0 mm 3 mps 756 mmHg 88%
20:00 +12°C° 0 mm 3 mps 756 mmHg 89%
21:00 +11°C° 0 mm 3 mps 757 mmHg 91%
22:00 +11°C° 0 mm 4 mps 756 mmHg 90%
23:00 +11°C° 0 mm 4 mps 756 mmHg 89%
Show more